Location: Bégole
(43.1574°N, 0.3291°E)
Time: 02:23:36
(UTC+00:00)

deb Delta 89 - Pass Details

Date: 01 March 2024
Orbit: 714 x 2021 km, 97.5° (Epoch: 13 April)

Event Time Altitude Azimuth Distance (km) Brightness Sun altitude
Rises 05:51:10 0° 6° (N) 5,481 ? -8.6°
Reaches altitude 10° 05:58:32 10° 335° (NNW) 4,447 ? -7.3°
Maximum altitude 06:00:31 11° 325° (NW) 4,361 ? -6.9°
Drops below altitude 10° 06:02:28 10° 314° (NW) 4,372 ? -6.6°
Enters shadow 06:07:07 - 291° (WNW) 4,776 ? -5.7°
